Time,TemperatureF,DewpointF,PressureIn,WindDirection,WindDirectionDegrees,WindSpeedMPH,WindSpeedGustMPH,Humidity,HourlyPrecipIn,Conditions,Clouds,dailyrainin,SoftwareType,DateUTC
2013-11-16 00:00:00,44.2,24.2,29.84,WSW,252,2.0,4.0,45,0.00,,,0.00,Wunderground v.1.15,2013-11-16 05:00:00,
2013-11-16 00:05:00,44.2,24.2,29.84,WSW,257,3.0,3.0,45,0.00,,,0.00,Wunderground v.1.15,2013-11-16 05:05:00,
2013-11-16 00:10:00,44.1,24.1,29.84,WSW,257,2.0,4.0,45,0.00,,,0.00,Wunderground v.1.15,2013-11-16 05:10:00,
2013-11-16 00:15:00,44.2,24.7,29.84,WSW,257,2.0,2.0,46,0.00,,,0.00,Wunderground v.1.15,2013-11-16 05:15:00,
2013-11-16 00:20:00,44.0,24.5,29.84,WSW,257,2.0,4.0,46,0.00,,,0.00,Wunderground v.1.15,2013-11-16 05:20:00,
2013-11-16 00:25:00,44.0,25.5,29.84,WSW,257,1.0,1.0,48,0.00,,,0.00,Wunderground v.1.15,2013-11-16 05:25:00,
2013-11-16 00:30:00,43.9,24.4,29.85,WSW,257,1.0,4.0,46,0.00,,,0.00,Wunderground v.1.15,2013-11-16 05:30:00,
2013-11-16 00:35:00,43.7,25.3,29.84,WSW,248,2.0,4.0,48,0.00,,,0.00,Wunderground v.1.15,2013-11-16 05:35:00,
2013-11-16 00:40:00,44.0,25.0,29.85,WSW,248,2.0,4.0,47,0.00,,,0.00,Wunderground v.1.15,2013-11-16 05:40:00,
2013-11-16 00:45:00,44.0,25.0,29.84,WSW,248,2.0,4.0,47,0.00,,,0.00,Wunderground v.1.15,2013-11-16 05:45:00,
2013-11-16 00:50:00,44.3,24.8,29.85,WSW,248,2.0,4.0,46,0.00,,,0.00,Wunderground v.1.15,2013-11-16 05:50:00,
2013-11-16 00:55:00,44.3,25.3,29.85,WSW,248,2.0,4.0,47,0.00,,,0.00,Wunderground v.1.15,2013-11-16 05:55:00,
2013-11-16 01:00:00,44.4,25.4,29.85,WSW,247,2.0,4.0,47,0.00,,,0.00,Wunderground v.1.15,2013-11-16 06:00:00,
2013-11-16 01:05:00,44.6,25.6,29.85,WSW,252,4.0,4.0,47,0.00,,,0.00,Wunderground v.1.15,2013-11-16 06:05:00,
2013-11-16 01:10:00,44.7,24.6,29.85,WSW,254,5.0,5.0,45,0.00,,,0.00,Wunderground v.1.15,2013-11-16 06:10:00,
2013-11-16 01:15:00,44.5,25.5,29.85,WSW,252,4.0,5.0,47,0.00,,,0.00,Wunderground v.1.15,2013-11-16 06:15:00,
2013-11-16 01:20:00,44.5,26.0,29.85,WSW,257,4.0,5.0,48,0.00,,,0.00,Wunderground v.1.15,2013-11-16 06:20:00,
2013-11-16 01:25:00,44.5,26.0,29.85,West,259,4.0,6.0,48,0.00,,,0.00,Wunderground v.1.15,2013-11-16 06:25:00,
2013-11-16 01:35:00,44.7,26.7,29.86,West,267,6.0,6.0,49,0.00,,,0.00,Wunderground v.1.15,2013-11-16 06:35:00,
2013-11-16 01:40:00,44.5,26.0,29.86,West,259,7.0,7.0,48,0.00,,,0.00,Wunderground v.1.15,2013-11-16 06:40:00,
2013-11-16 01:45:00,44.4,27.4,29.86,WSW,257,6.0,8.0,51,0.00,,,0.00,Wunderground v.1.15,2013-11-16 06:45:00,
2013-11-16 01:50:00,44.1,27.1,29.86,West,259,5.0,8.0,51,0.00,,,0.00,Wunderground v.1.15,2013-11-16 06:50:00,
2013-11-16 01:55:00,44.1,26.6,29.86,West,266,6.0,7.0,50,0.00,,,0.00,Wunderground v.1.15,2013-11-16 06:55:00,
2013-11-16 02:00:00,44.1,27.6,29.86,West,268,6.0,7.0,52,0.00,,,0.00,Wunderground v.1.15,2013-11-16 07:00:00,
2013-11-16 02:05:00,44.0,28.0,29.87,West,266,6.0,6.0,53,0.00,,,0.00,Wunderground v.1.15,2013-11-16 07:05:00,
2013-11-16 02:10:00,44.0,28.0,29.87,West,259,5.0,6.0,53,0.00,,,0.00,Wunderground v.1.15,2013-11-16 07:10:00,
2013-11-16 02:15:00,43.9,27.9,29.87,WSW,254,5.0,5.0,53,0.00,,,0.00,Wunderground v.1.15,2013-11-16 07:15:00,
2013-11-16 02:20:00,43.8,28.7,29.87,West,261,6.0,6.0,55,0.00,,,0.00,Wunderground v.1.15,2013-11-16 07:20:00,
2013-11-16 02:25:00,43.6,28.9,29.87,West,269,6.0,9.0,56,0.00,,,0.00,Wunderground v.1.15,2013-11-16 07:25:00,
2013-11-16 02:30:00,43.4,29.2,29.87,West,272,7.0,9.0,57,0.00,,,0.00,Wunderground v.1.15,2013-11-16 07:30:00,
2013-11-16 02:35:00,43.5,29.3,29.87,West,265,7.0,7.0,57,0.00,,,0.00,Wunderground v.1.15,2013-11-16 07:35:00,
2013-11-16 02:40:00,43.3,29.9,29.87,West,263,7.0,8.0,59,0.00,,,0.00,Wunderground v.1.15,2013-11-16 07:40:00,
2013-11-16 02:45:00,43.1,29.7,29.87,West,274,6.0,6.0,59,0.00,,,0.00,Wunderground v.1.15,2013-11-16 07:45:00,
2013-11-16 02:55:00,43.2,30.2,29.87,West,273,6.0,6.0,60,0.00,,,0.00,Wunderground v.1.15,2013-11-16 07:55:00,
2013-11-16 03:00:00,43.5,30.5,29.88,West,261,6.0,6.0,60,0.00,,,0.00,Wunderground v.1.15,2013-11-16 08:00:00,
2013-11-16 03:05:00,43.9,30.9,29.87,West,265,7.0,7.0,60,0.00,,,0.00,Wunderground v.1.15,2013-11-16 08:05:00,
2013-11-16 03:10:00,43.8,30.8,29.88,West,273,6.0,7.0,60,0.00,,,0.00,Wunderground v.1.15,2013-11-16 08:10:00,
2013-11-16 03:15:00,43.8,30.8,29.87,West,265,5.0,8.0,60,0.00,,,0.00,Wunderground v.1.15,2013-11-16 08:15:00,
2013-11-16 03:20:00,43.7,31.1,29.87,West,262,5.0,8.0,61,0.00,,,0.00,Wunderground v.1.15,2013-11-16 08:20:00,
2013-11-16 03:25:00,43.5,31.7,29.88,WSW,250,6.0,7.0,63,0.00,,,0.00,Wunderground v.1.15,2013-11-16 08:25:00,
2013-11-16 03:30:00,43.2,31.4,29.88,West,270,5.0,7.0,63,0.00,,,0.00,Wunderground v.1.15,2013-11-16 08:30:00,
2013-11-16 03:35:00,42.9,31.6,29.88,West,265,3.0,3.0,64,0.00,,,0.00,Wunderground v.1.15,2013-11-16 08:35:00,
2013-11-16 03:40:00,42.6,31.7,29.88,WSW,250,2.0,4.0,65,0.00,,,0.00,Wunderground v.1.15,2013-11-16 08:40:00,
2013-11-16 03:45:00,42.4,31.8,29.88,WSW,252,1.0,4.0,66,0.00,,,0.00,Wunderground v.1.15,2013-11-16 08:45:00,
2013-11-16 03:50:00,42.4,31.8,29.88,WSW,252,1.0,4.0,66,0.00,,,0.00,Wunderground v.1.15,2013-11-16 08:50:00,
2013-11-16 03:55:00,42.2,32.0,29.88,WSW,246,1.0,12.0,67,0.00,,,0.00,Wunderground v.1.15,2013-11-16 08:55:00,
2013-11-16 04:00:00,42.1,32.3,29.88,West,276,4.0,12.0,68,0.00,,,0.00,Wunderground v.1.15,2013-11-16 09:00:00,
2013-11-16 04:05:00,42.2,32.4,29.89,West,268,7.0,7.0,68,0.00,,,0.00,Wunderground v.1.15,2013-11-16 09:05:00,
2013-11-16 04:10:00,42.3,32.5,29.88,West,269,7.0,7.0,68,0.00,,,0.00,Wunderground v.1.15,2013-11-16 09:10:00,
2013-11-16 04:15:00,42.2,32.4,29.88,West,270,5.0,5.0,68,0.00,,,0.00,Wunderground v.1.15,2013-11-16 09:15:00,
2013-11-16 04:20:00,42.0,32.6,29.88,West,268,3.0,5.0,69,0.00,,,0.00,Wunderground v.1.15,2013-11-16 09:20:00,
2013-11-16 04:25:00,41.9,32.5,29.88,West,268,2.0,2.0,69,0.00,,,0.00,Wunderground v.1.15,2013-11-16 09:25:00,
2013-11-16 04:30:00,41.8,32.4,29.88,West,269,2.0,4.0,69,0.00,,,0.00,Wunderground v.1.15,2013-11-16 09:30:00,
2013-11-16 04:35:00,41.9,32.8,29.88,West,266,2.0,4.0,70,0.00,,,0.00,Wunderground v.1.15,2013-11-16 09:35:00,
2013-11-16 04:40:00,42.0,32.6,29.88,West,266,1.0,4.0,69,0.00,,,0.00,Wunderground v.1.15,2013-11-16 09:40:00,
2013-11-16 04:45:00,42.0,32.6,29.88,West,266,1.0,1.0,69,0.00,,,0.00,Wunderground v.1.15,2013-11-16 09:45:00,
2013-11-16 04:50:00,42.0,32.6,29.88,West,259,2.0,3.0,69,0.00,,,0.00,Wunderground v.1.15,2013-11-16 09:50:00,
2013-11-16 04:55:00,42.0,32.9,29.88,West,259,3.0,3.0,70,0.00,,,0.00,Wunderground v.1.15,2013-11-16 09:55:00,
2013-11-16 05:00:00,42.0,32.9,29.88,WSW,258,2.0,4.0,70,0.00,,,0.00,Wunderground v.1.15,2013-11-16 10:00:00,
2013-11-16 05:05:00,42.0,32.9,29.88,West,261,3.0,3.0,70,0.00,,,0.00,Wunderground v.1.15,2013-11-16 10:05:00,
2013-11-16 05:10:00,41.9,32.8,29.88,West,260,2.0,4.0,70,0.00,,,0.00,Wunderground v.1.15,2013-11-16 10:10:00,
2013-11-16 05:15:00,41.8,32.7,29.88,West,260,1.0,5.0,70,0.00,,,0.00,Wunderground v.1.15,2013-11-16 10:15:00,
2013-11-16 05:20:00,41.7,32.6,29.88,WSW,256,2.0,5.0,70,0.00,,,0.00,Wunderground v.1.15,2013-11-16 10:20:00,
2013-11-16 05:25:00,41.7,32.6,29.87,WSW,256,3.0,4.0,70,0.00,,,0.00,Wunderground v.1.15,2013-11-16 10:25:00,
2013-11-16 05:30:00,41.6,32.5,29.87,WSW,256,2.0,4.0,70,0.00,,,0.00,Wunderground v.1.15,2013-11-16 10:30:00,
2013-11-16 05:35:00,41.4,32.3,29.87,WSW,256,1.0,4.0,70,0.00,,,0.00,Wunderground v.1.15,2013-11-16 10:35:00,
2013-11-16 05:40:00,41.4,32.7,29.87,WSW,257,1.0,6.0,71,0.00,,,0.00,Wunderground v.1.15,2013-11-16 10:40:00,
2013-11-16 05:45:00,41.4,32.7,29.87,WSW,257,2.0,4.0,71,0.00,,,0.00,Wunderground v.1.15,2013-11-16 10:45:00,
2013-11-16 05:50:00,41.5,32.8,29.87,WSW,248,2.0,4.0,71,0.00,,,0.00,Wunderground v.1.15,2013-11-16 10:50:00,
2013-11-16 05:55:00,41.6,32.5,29.87,West,266,2.0,5.0,70,0.00,,,0.00,Wunderground v.1.15,2013-11-16 10:55:00,
2013-11-16 06:00:00,41.5,32.4,29.88,West,263,2.0,5.0,70,0.00,,,0.00,Wunderground v.1.15,2013-11-16 11:00:00,
2013-11-16 06:05:00,41.3,32.6,29.87,West,263,1.0,1.0,71,0.00,,,0.00,Wunderground v.1.15,2013-11-16 11:05:00,
2013-11-16 06:10:00,41.3,32.6,29.88,West,263,1.0,4.0,71,0.00,,,0.00,Wunderground v.1.15,2013-11-16 11:10:00,
2013-11-16 06:15:00,41.2,32.5,29.88,West,263,1.0,4.0,71,0.00,,,0.00,Wunderground v.1.15,2013-11-16 11:15:00,
2013-11-16 06:20:00,41.0,32.3,29.88,West,263,2.0,4.0,71,0.00,,,0.00,Wunderground v.1.15,2013-11-16 11:20:00,
2013-11-16 06:25:00,40.7,32.4,29.88,West,263,1.0,1.0,72,0.00,,,0.00,Wunderground v.1.15,2013-11-16 11:25:00,
2013-11-16 06:30:00,40.5,32.2,29.88,West,263,0.0,4.0,72,0.00,,,0.00,Wunderground v.1.15,2013-11-16 11:30:00,
2013-11-16 06:35:00,40.5,32.2,29.88,West,263,0.0,4.0,72,0.00,,,0.00,Wunderground v.1.15,2013-11-16 11:35:00,
2013-11-16 06:40:00,40.6,32.3,29.89,West,263,1.0,4.0,72,0.00,,,0.00,Wunderground v.1.15,2013-11-16 11:40:00,
2013-11-16 06:45:00,40.5,32.2,29.89,West,263,1.0,4.0,72,0.00,,,0.00,Wunderground v.1.15,2013-11-16 11:45:00,
2013-11-16 06:50:00,40.5,32.2,29.89,West,263,1.0,4.0,72,0.00,,,0.00,Wunderground v.1.15,2013-11-16 11:50:00,
2013-11-16 06:55:00,40.6,32.3,29.89,West,263,1.0,4.0,72,0.00,,,0.00,Wunderground v.1.15,2013-11-16 11:55:00,
2013-11-16 07:00:00,40.4,31.7,29.89,West,263,1.0,4.0,71,0.00,,,0.00,Wunderground v.1.15,2013-11-16 12:00:00,
2013-11-16 07:05:00,40.2,31.9,29.89,West,263,0.0,4.0,72,0.00,,,0.00,Wunderground v.1.15,2013-11-16 12:05:00,
2013-11-16 07:10:00,39.9,31.9,29.90,West,263,0.0,4.0,73,0.00,,,0.00,Wunderground v.1.15,2013-11-16 12:10:00,
2013-11-16 07:15:00,39.8,32.2,29.90,West,263,0.0,4.0,74,0.00,,,0.00,Wunderground v.1.15,2013-11-16 12:15:00,
2013-11-16 07:20:00,39.9,32.3,29.90,West,263,1.0,4.0,74,0.00,,,0.00,Wunderground v.1.15,2013-11-16 12:20:00,
2013-11-16 07:25:00,40.1,32.5,29.90,West,263,1.0,1.0,74,0.00,,,0.00,Wunderground v.1.15,2013-11-16 12:25:00,
2013-11-16 07:30:00,40.3,32.7,29.91,West,263,1.0,4.0,74,0.00,,,0.00,Wunderground v.1.15,2013-11-16 12:30:00,
2013-11-16 07:35:00,40.7,32.7,29.91,West,263,1.0,4.0,73,0.00,,,0.00,Wunderground v.1.15,2013-11-16 12:35:00,
2013-11-16 07:40:00,41.0,33.0,29.91,West,263,2.0,4.0,73,0.00,,,0.00,Wunderground v.1.15,2013-11-16 12:40:00,
2013-11-16 07:45:00,41.4,33.4,29.91,West,263,2.0,4.0,73,0.00,,,0.00,Wunderground v.1.15,2013-11-16 12:45:00,
2013-11-16 07:50:00,41.7,33.3,29.91,West,263,2.0,4.0,72,0.00,,,0.00,Wunderground v.1.15,2013-11-16 12:50:00,
2013-11-16 07:55:00,42.0,33.6,29.92,West,263,3.0,5.0,72,0.00,,,0.00,Wunderground v.1.15,2013-11-16 12:55:00,
2013-11-16 08:00:00,42.5,33.8,29.92,West,263,3.0,5.0,71,0.00,,,0.00,Wunderground v.1.15,2013-11-16 13:00:00,
2013-11-16 08:05:00,42.9,34.1,29.92,West,263,4.0,6.0,71,0.00,,,0.00,Wunderground v.1.15,2013-11-16 13:05:00,
2013-11-16 08:10:00,43.1,33.6,29.92,West,263,5.0,6.0,69,0.00,,,0.00,Wunderground v.1.15,2013-11-16 13:10:00,
2013-11-16 08:15:00,43.3,33.8,29.92,West,263,5.0,5.0,69,0.00,,,0.00,Wunderground v.1.15,2013-11-16 13:15:00,
2013-11-16 08:20:00,43.6,34.1,29.92,West,261,5.0,5.0,69,0.00,,,0.00,Wunderground v.1.15,2013-11-16 13:20:00,
2013-11-16 08:25:00,43.9,34.4,29.92,West,261,4.0,4.0,69,0.00,,,0.00,Wunderground v.1.15,2013-11-16 13:25:00,
2013-11-16 08:30:00,44.2,34.3,29.93,West,261,3.0,4.0,68,0.00,,,0.00,Wunderground v.1.15,2013-11-16 13:30:00,
2013-11-16 08:35:00,44.5,34.6,29.93,West,261,3.0,4.0,68,0.00,,,0.00,Wunderground v.1.15,2013-11-16 13:35:00,
2013-11-16 08:40:00,44.6,35.1,29.93,West,261,3.0,4.0,69,0.00,,,0.00,Wunderground v.1.15,2013-11-16 13:40:00,
2013-11-16 08:45:00,44.7,34.8,29.93,West,261,4.0,4.0,68,0.00,,,0.00,Wunderground v.1.15,2013-11-16 13:45:00,
2013-11-16 08:50:00,45.0,35.8,29.93,West,261,2.0,4.0,70,0.00,,,0.00,Wunderground v.1.15,2013-11-16 13:50:00,
2013-11-16 08:55:00,45.2,34.9,29.94,West,261,2.0,4.0,67,0.00,,,0.00,Wunderground v.1.15,2013-11-16 13:55:00,
2013-11-16 09:00:00,45.3,34.6,29.94,West,262,4.0,4.0,66,0.00,,,0.00,Wunderground v.1.15,2013-11-16 14:00:00,
2013-11-16 09:05:00,45.5,34.8,29.94,WSW,258,4.0,4.0,66,0.00,,,0.00,Wunderground v.1.15,2013-11-16 14:05:00,
2013-11-16 09:10:00,45.8,35.5,29.94,WSW,258,4.0,4.0,67,0.00,,,0.00,Wunderground v.1.15,2013-11-16 14:10:00,
2013-11-16 09:15:00,46.1,35.4,29.94,WSW,258,4.0,5.0,66,0.00,,,0.00,Wunderground v.1.15,2013-11-16 14:15:00,
2013-11-16 09:20:00,46.3,35.6,29.95,WSW,253,6.0,8.0,66,0.00,,,0.00,Wunderground v.1.15,2013-11-16 14:20:00,
2013-11-16 09:25:00,46.6,35.1,29.95,WSW,245,8.0,10.0,64,0.00,,,0.00,Wunderground v.1.15,2013-11-16 14:25:00,
2013-11-16 09:30:00,46.7,35.2,29.94,WSW,252,9.0,13.0,64,0.00,,,0.00,Wunderground v.1.15,2013-11-16 14:30:00,
2013-11-16 09:35:00,46.9,35.4,29.94,WSW,252,9.0,10.0,64,0.00,,,0.00,Wunderground v.1.15,2013-11-16 14:35:00,
2013-11-16 09:40:00,47.2,36.0,29.95,WSW,249,9.0,10.0,65,0.00,,,0.00,Wunderground v.1.15,2013-11-16 14:40:00,
2013-11-16 09:45:00,47.5,35.9,29.95,WSW,252,8.0,8.0,64,0.00,,,0.00,Wunderground v.1.15,2013-11-16 14:45:00,
2013-11-16 09:50:00,47.8,35.8,29.95,WSW,247,7.0,8.0,63,0.00,,,0.00,Wunderground v.1.15,2013-11-16 14:50:00,
2013-11-16 09:55:00,48.2,36.2,29.95,WSW,251,6.0,8.0,63,0.00,,,0.00,Wunderground v.1.15,2013-11-16 14:55:00,
2013-11-16 10:00:00,48.7,35.8,29.95,WSW,257,5.0,8.0,61,0.00,,,0.00,Wunderground v.1.15,2013-11-16 15:00:00,
2013-11-16 10:05:00,48.9,36.0,29.95,WSW,244,6.0,8.0,61,0.00,,,0.00,Wunderground v.1.15,2013-11-16 15:05:00,
2013-11-16 10:10:00,49.0,36.1,29.95,WSW,250,8.0,11.0,61,0.00,,,0.00,Wunderground v.1.15,2013-11-16 15:10:00,
2013-11-16 10:15:00,49.1,35.8,29.95,West,265,8.0,8.0,60,0.00,,,0.00,Wunderground v.1.15,2013-11-16 15:15:00,
2013-11-16 10:20:00,49.3,36.4,29.95,WSW,250,9.0,9.0,61,0.00,,,0.00,Wunderground v.1.15,2013-11-16 15:20:00,
2013-11-16 10:25:00,49.5,36.2,29.95,WSW,243,8.0,11.0,60,0.00,,,0.00,Wunderground v.1.15,2013-11-16 15:25:00,
2013-11-16 10:30:00,49.6,35.8,29.95,West,262,7.0,11.0,59,0.00,,,0.00,Wunderground v.1.15,2013-11-16 15:30:00,
2013-11-16 10:35:00,49.8,35.6,29.95,West,259,7.0,7.0,58,0.00,,,0.00,Wunderground v.1.15,2013-11-16 15:35:00,
2013-11-16 10:40:00,49.9,36.1,29.95,WSW,252,6.0,9.0,59,0.00,,,0.00,Wunderground v.1.15,2013-11-16 15:40:00,
2013-11-16 10:45:00,50.1,36.3,29.95,WSW,246,6.0,6.0,59,0.00,,,0.00,Wunderground v.1.15,2013-11-16 15:45:00,
2013-11-16 10:50:00,50.2,36.0,29.94,WSW,252,8.0,8.0,58,0.00,,,0.00,Wunderground v.1.15,2013-11-16 15:50:00,
2013-11-16 10:55:00,50.4,37.0,29.94,West,269,8.0,8.0,60,0.00,,,0.00,Wunderground v.1.15,2013-11-16 15:55:00,
2013-11-16 11:00:00,50.7,36.0,29.93,WSW,257,7.0,8.0,57,0.00,,,0.00,Wunderground v.1.15,2013-11-16 16:00:00,
2013-11-16 11:05:00,51.0,37.6,29.93,West,259,5.0,6.0,60,0.00,,,0.00,Wunderground v.1.15,2013-11-16 16:05:00,
2013-11-16 11:10:00,50.9,36.2,29.93,WSW,250,6.0,6.0,57,0.00,,,0.00,Wunderground v.1.15,2013-11-16 16:10:00,
2013-11-16 11:20:00,51.4,36.7,29.92,West,267,6.0,6.0,57,0.00,,,0.00,Wunderground v.1.15,2013-11-16 16:20:00,
2013-11-16 11:25:00,51.5,37.2,29.92,WSW,250,7.0,8.0,58,0.00,,,0.00,Wunderground v.1.15,2013-11-16 16:25:00,
2013-11-16 11:30:00,51.7,37.4,29.92,WNW,293,5.0,8.0,58,0.00,,,0.00,Wunderground v.1.15,2013-11-16 16:30:00,
2013-11-16 11:35:00,51.9,36.7,29.92,West,272,6.0,7.0,56,0.00,,,0.00,Wunderground v.1.15,2013-11-16 16:35:00,
2013-11-16 11:40:00,51.9,36.7,29.92,West,262,8.0,8.0,56,0.00,,,0.00,Wunderground v.1.15,2013-11-16 16:40:00,
2013-11-16 11:45:00,52.0,36.3,29.91,WSW,256,8.0,8.0,55,0.00,,,0.00,Wunderground v.1.15,2013-11-16 16:45:00,
2013-11-16 11:50:00,52.4,36.7,29.91,West,261,5.0,8.0,55,0.00,,,0.00,Wunderground v.1.15,2013-11-16 16:50:00,
2013-11-16 11:55:00,52.7,37.4,29.91,WSW,255,3.0,5.0,56,0.00,,,0.00,Wunderground v.1.15,2013-11-16 16:55:00,
2013-11-16 12:00:00,53.0,37.7,29.91,WSW,254,5.0,6.0,56,0.00,,,0.00,Wunderground v.1.15,2013-11-16 17:00:00,
2013-11-16 12:15:00,53.3,37.1,29.91,West,262,4.0,4.0,54,0.00,,,0.00,Wunderground v.1.15,2013-11-16 17:15:00,
2013-11-16 12:20:00,53.3,36.6,29.91,WSW,242,4.0,8.0,53,0.00,,,0.00,Wunderground v.1.15,2013-11-16 17:20:00,
2013-11-16 12:25:00,53.2,36.5,29.91,West,277,6.0,6.0,53,0.00,,,0.00,Wunderground v.1.15,2013-11-16 17:25:00,
2013-11-16 12:30:00,53.2,36.0,29.91,West,278,7.0,7.0,52,0.00,,,0.00,Wunderground v.1.15,2013-11-16 17:30:00,
2013-11-16 12:35:00,53.2,36.0,29.90,WSW,252,6.0,10.0,52,0.00,,,0.00,Wunderground v.1.15,2013-11-16 17:35:00,
2013-11-16 12:40:00,53.5,37.7,29.90,West,271,6.0,10.0,55,0.00,,,0.00,Wunderground v.1.15,2013-11-16 17:40:00,
2013-11-16 12:45:00,53.8,36.6,29.90,North,11,4.0,4.0,52,0.00,,,0.00,Wunderground v.1.15,2013-11-16 17:45:00,
2013-11-16 12:50:00,54.0,37.2,29.90,West,268,2.0,7.0,53,0.00,,,0.00,Wunderground v.1.15,2013-11-16 17:50:00,
2013-11-16 12:55:00,54.0,37.2,29.90,West,275,4.0,4.0,53,0.00,,,0.00,Wunderground v.1.15,2013-11-16 17:55:00,
2013-11-16 13:00:00,54.1,36.9,29.90,West,273,5.0,5.0,52,0.00,,,0.00,Wunderground v.1.15,2013-11-16 18:00:00,
2013-11-16 13:05:00,54.2,36.5,29.89,WSW,252,3.0,8.0,51,0.00,,,0.00,Wunderground v.1.15,2013-11-16 18:05:00,
2013-11-16 13:10:00,54.3,37.0,29.89,WSW,252,4.0,8.0,52,0.00,,,0.00,Wunderground v.1.15,2013-11-16 18:10:00,
2013-11-16 13:15:00,54.3,37.5,29.89,WSW,252,4.0,4.0,53,0.00,,,0.00,Wunderground v.1.15,2013-11-16 18:15:00,
2013-11-16 13:20:00,54.7,37.4,29.89,West,267,3.0,4.0,52,0.00,,,0.00,Wunderground v.1.15,2013-11-16 18:20:00,
2013-11-16 13:25:00,54.9,38.1,29.89,WSW,246,2.0,7.0,53,0.00,,,0.00,Wunderground v.1.15,2013-11-16 18:25:00,
2013-11-16 13:30:00,55.1,37.8,29.89,WSW,251,1.0,7.0,52,0.00,,,0.00,Wunderground v.1.15,2013-11-16 18:30:00,
2013-11-16 13:40:00,55.3,38.4,29.89,West,266,3.0,4.0,53,0.00,,,0.00,Wunderground v.1.15,2013-11-16 18:40:00,
2013-11-16 13:45:00,55.4,38.1,29.89,WSW,243,3.0,4.0,52,0.00,,,0.00,Wunderground v.1.15,2013-11-16 18:45:00,